TAR654 DTTJ-LFPO

Flight info

Callsign TAR654
Flight time 2h 40m
Altitude 24000
Route KBIRA1A KBIRA V334 NEDOS/N0460F340 UV334 TBK UM858 DOPEL DCT DEC DCT LUNAM DCT RAMEN DCT UPDUT/N0455F360 DCT CORSI DCT OMEDA DCT MERLU DCT PIGOS DCT BARSO DCT OKTET DCT GIPNO/N0457F340 DCT BULOL DCT IDAVO DCT ARDOL
Aircraft A320/M-SDE3FGHIRWY/LB1

Departure

Time 2026-04-22 09:30
Airport Djerba Zarzis International Airport (DTTJ)

Arrival

Time 2026-04-22 12:10
Airport Paris-Orly Airport (LFPO)
Time Latitude Longitude Altitude Speed Heading
2026-04-22 08:43 33.87236 10.77394 27 ft 0 kts 132°
2026-04-22 08:45 33.87241 10.77389 27 ft 0 kts 132°
2026-04-22 09:19 33.87245 10.77383 27 ft 4 kts 132°
2026-04-22 09:19 33.87263 10.77359 27 ft 4 kts 132°
2026-04-22 09:19 33.87277 10.77340 27 ft 4 kts 132°
2026-04-22 09:20 33.87290 10.77323 27 ft 3 kts 128°
2026-04-22 09:20 33.87302 10.77287 27 ft 4 kts 72°
2026-04-22 09:20 33.87287 10.77264 27 ft 4 kts 30°
2026-04-22 09:20 33.87278 10.77258 27 ft 0 kts 27°
2026-04-22 09:26 33.87280 10.77259 27 ft 3 kts 27°
2026-04-22 09:26 33.87328 10.77274 27 ft 9 kts 354°
2026-04-22 09:26 33.87361 10.77222 27 ft 0 kts 280°
2026-04-22 09:27 33.87362 10.77217 27 ft 4 kts 280°
2026-04-22 09:27 33.87369 10.77142 26 ft 14 kts 265°
2026-04-22 09:27 33.87360 10.76987 27 ft 23 kts 268°
2026-04-22 09:27 33.87354 10.76774 23 ft 25 kts 268°
2026-04-22 09:28 33.87350 10.76555 20 ft 26 kts 269°
2026-04-22 09:28 33.87347 10.76337 20 ft 27 kts 269°
2026-04-22 09:28 33.87342 10.76111 16 ft 25 kts 285°
2026-04-22 09:28 33.87481 10.76063 23 ft 20 kts 29°
2026-04-22 09:29 33.87511 10.76202 22 ft 16 kts 86°
2026-04-22 09:29 33.87513 10.76318 20 ft 34 kts 89°
2026-04-22 09:29 33.87528 10.76909 18 ft 104 kts 88°
2026-04-22 09:29 33.87554 10.78026 23 ft 156 kts 88°
2026-04-22 09:30 33.87603 10.79453 327 ft 173 kts 88°
2026-04-22 09:30 33.87793 10.80867 933 ft 172 kts 56°
2026-04-22 09:30 33.88740 10.81674 1546 ft 168 kts 10°
2026-04-22 09:30 33.89907 10.81672 2057 ft 174 kts 346°
2026-04-22 09:31 33.91025 10.80983 2225 ft 192 kts 315°
2026-04-22 09:31 33.91847 10.79644 2481 ft 204 kts 302°
2026-04-22 09:31 33.92658 10.78175 2817 ft 218 kts 302°
2026-04-22 09:31 33.93514 10.76646 3394 ft 222 kts 302°
2026-04-22 09:32 33.94385 10.75099 4046 ft 224 kts 302°
2026-04-22 09:32 33.95268 10.73537 4699 ft 227 kts 302°
2026-04-22 09:32 33.96255 10.72040 5334 ft 232 kts 319°
2026-04-22 09:32 33.97663 10.71059 5949 ft 237 kts 332°
2026-04-22 09:33 33.99208 10.70171 6286 ft 258 kts 333°
2026-04-22 09:33 34.00897 10.69201 6598 ft 278 kts 333°
2026-04-22 09:33 34.02670 10.68184 7233 ft 285 kts 333°
2026-04-22 09:33 34.04474 10.67147 7965 ft 289 kts 333°
2026-04-22 09:34 34.06297 10.66098 8675 ft 292 kts 333°
2026-04-22 09:34 34.08141 10.65036 9384 ft 295 kts 333°
2026-04-22 09:34 34.10004 10.63960 10093 ft 298 kts 333°
2026-04-22 09:35 34.13930 10.61683 10768 ft 333 kts 333°
2026-04-22 09:35 34.16085 10.60431 10898 ft 355 kts 333°
2026-04-22 09:35 34.18376 10.59105 11039 ft 374 kts 333°
2026-04-22 09:35 34.20784 10.57714 11168 ft 392 kts 334°
2026-04-22 09:36 34.23277 10.56271 11520 ft 401 kts 334°
2026-04-22 09:36 34.25808 10.54803 12077 ft 405 kts 334°
2026-04-22 09:36 34.28345 10.53316 12685 ft 406 kts 333°
2026-04-22 09:36 34.30891 10.51811 13273 ft 408 kts 333°
2026-04-22 09:37 34.33447 10.50291 13838 ft 410 kts 333°
2026-04-22 09:37 34.36014 10.48765 14372 ft 413 kts 333°
2026-04-22 09:37 34.38598 10.47230 14885 ft 414 kts 333°
2026-04-22 09:37 34.41199 10.45688 15371 ft 417 kts 333°
2026-04-22 09:38 34.43813 10.44140 15848 ft 419 kts 333°
2026-04-22 09:38 34.46431 10.42589 16300 ft 421 kts 333°
2026-04-22 09:38 34.49067 10.41025 16751 ft 422 kts 333°
2026-04-22 09:38 34.51709 10.39457 17181 ft 424 kts 332°
2026-04-22 09:39 34.54363 10.37875 17592 ft 426 kts 332°
2026-04-22 09:39 34.57031 10.36282 17988 ft 427 kts 332°
2026-04-22 09:39 34.59704 10.34685 18365 ft 429 kts 332°
2026-04-22 09:39 34.62388 10.33083 18724 ft 431 kts 332°
2026-04-22 09:40 34.65123 10.31449 19051 ft 433 kts 332°
2026-04-22 09:40 34.67800 10.29851 19381 ft 435 kts 332°
2026-04-22 09:40 34.70526 10.28226 19701 ft 437 kts 332°
2026-04-22 09:40 34.73293 10.26575 20004 ft 439 kts 332°
2026-04-22 09:41 34.76041 10.24933 20302 ft 441 kts 332°
2026-04-22 09:41 34.78794 10.23283 20565 ft 442 kts 332°
2026-04-22 09:41 34.81555 10.21625 20823 ft 444 kts 332°
2026-04-22 09:41 34.84331 10.19957 21096 ft 445 kts 332°
2026-04-22 09:42 34.87113 10.18284 21359 ft 447 kts 332°
2026-04-22 09:42 34.89914 10.16606 21602 ft 449 kts 332°
2026-04-22 09:42 34.92713 10.14926 21842 ft 450 kts 332°
2026-04-22 09:42 34.95526 10.13234 22067 ft 452 kts 332°
2026-04-22 09:43 34.98348 10.11534 22293 ft 453 kts 332°
2026-04-22 09:43 35.01180 10.09831 22507 ft 454 kts 332°
2026-04-22 09:43 35.04022 10.08122 22711 ft 456 kts 332°
2026-04-22 09:43 35.06867 10.06410 22906 ft 457 kts 332°
2026-04-22 09:44 35.09723 10.04686 23109 ft 458 kts 332°
2026-04-22 09:44 35.12583 10.02953 23308 ft 459 kts 332°
2026-04-22 09:44 35.15441 10.01215 23486 ft 460 kts 332°
2026-04-22 09:44 35.18284 9.99426 23734 ft 459 kts 330°
2026-04-22 09:45 35.21093 9.97582 23971 ft 459 kts 329°
2026-04-22 09:45 35.23891 9.95700 24190 ft 459 kts 329°
2026-04-22 09:45 35.26679 9.93801 24424 ft 458 kts 329°
2026-04-22 09:45 35.29466 9.91901 24662 ft 458 kts 329°
2026-04-22 09:46 35.32252 9.90015 24923 ft 457 kts 329°
2026-04-22 09:46 35.35045 9.88144 25187 ft 457 kts 329°
2026-04-22 09:46 35.37835 9.86291 25446 ft 456 kts 329°
2026-04-22 09:46 35.40663 9.84420 25706 ft 456 kts 329°
2026-04-22 09:47 35.43452 9.82573 25964 ft 455 kts 329°
2026-04-22 09:47 35.46235 9.80722 26236 ft 454 kts 329°
2026-04-22 09:47 35.49005 9.78869 26504 ft 453 kts 329°
2026-04-22 09:47 35.51743 9.77032 26754 ft 453 kts 329°
2026-04-22 09:48 35.54508 9.75177 27007 ft 453 kts 329°
2026-04-22 09:48 35.57269 9.73321 27278 ft 452 kts 329°
2026-04-22 09:48 35.60025 9.71467 27546 ft 451 kts 329°
2026-04-22 09:48 35.62779 9.69616 27811 ft 451 kts 329°
2026-04-22 09:49 35.65531 9.67769 28070 ft 450 kts 329°
2026-04-22 09:49 35.68276 9.65923 28344 ft 449 kts 328°
2026-04-22 09:49 35.71018 9.64078 28614 ft 449 kts 329°
2026-04-22 09:49 35.73784 9.62289 28874 ft 449 kts 330°
2026-04-22 09:50 35.76589 9.60592 29128 ft 449 kts 332°
2026-04-22 09:50 35.79419 9.58955 29380 ft 449 kts 332°
2026-04-22 09:50 35.82257 9.57342 29628 ft 449 kts 332°
2026-04-22 09:50 35.85096 9.55724 29883 ft 449 kts 332°
2026-04-22 09:51 35.87917 9.54093 30141 ft 448 kts 332°
2026-04-22 09:51 35.90727 9.52444 30397 ft 447 kts 331°
2026-04-22 09:51 35.93531 9.50783 30638 ft 447 kts 331°
2026-04-22 09:51 35.96326 9.49124 30909 ft 446 kts 331°
2026-04-22 09:52 35.99122 9.47467 31151 ft 445 kts 331°
2026-04-22 09:52 36.01915 9.45815 31398 ft 445 kts 331°
2026-04-22 09:52 36.04701 9.44171 31676 ft 443 kts 331°
2026-04-22 09:52 36.07475 9.42535 31959 ft 441 kts 331°
2026-04-22 09:53 36.10245 9.40898 32223 ft 440 kts 331°
2026-04-22 09:53 36.13001 9.39265 32483 ft 439 kts 331°
2026-04-22 09:53 36.15754 9.37634 32733 ft 438 kts 331°
2026-04-22 09:53 36.18500 9.36004 32973 ft 437 kts 331°
2026-04-22 09:54 36.21237 9.34377 33215 ft 436 kts 331°
2026-04-22 09:54 36.23976 9.32751 33451 ft 436 kts 331°
2026-04-22 09:54 36.26713 9.31127 33682 ft 435 kts 331°
2026-04-22 09:54 36.29433 9.29512 33906 ft 434 kts 331°
2026-04-22 09:55 36.32154 9.27894 34127 ft 433 kts 331°
2026-04-22 09:55 36.34906 9.26254 34347 ft 432 kts 330°
2026-04-22 09:55 36.37613 9.24636 34576 ft 432 kts 330°
2026-04-22 09:55 36.40318 9.23021 34784 ft 431 kts 331°
2026-04-22 09:56 36.43012 9.21412 34979 ft 430 kts 331°
2026-04-22 09:56 36.45707 9.19801 35158 ft 430 kts 330°
2026-04-22 09:56 36.48402 9.18188 35329 ft 429 kts 330°
2026-04-22 09:56 36.51126 9.16557 35493 ft 429 kts 330°
2026-04-22 09:57 36.53815 9.14947 35671 ft 429 kts 330°
2026-04-22 09:57 36.55592 9.13885 35791 ft 428 kts 330°
2026-04-22 09:57 36.58279 9.12275 35919 ft 428 kts 330°
2026-04-22 09:57 36.61002 9.10636 35944 ft 431 kts 330°
2026-04-22 09:58 36.66431 9.07357 35943 ft 435 kts 330°
2026-04-22 09:58 36.71872 9.04068 35943 ft 435 kts 330°
2026-04-22 09:59 36.77317 9.00777 35943 ft 435 kts 330°
2026-04-22 09:59 36.82758 8.97483 35945 ft 435 kts 330°
2026-04-22 10:00 36.88206 8.94184 35949 ft 435 kts 330°
2026-04-22 10:00 36.93656 8.90894 35952 ft 435 kts 330°
2026-04-22 10:01 36.99455 8.88587 35952 ft 444 kts 348°
2026-04-22 10:01 37.05670 8.88350 35952 ft 449 kts 355°
2026-04-22 10:02 37.11958 8.88366 35952 ft 449 kts 355°
2026-04-22 10:02 37.18196 8.88358 35952 ft 449 kts 355°
2026-04-22 10:03 37.24443 8.88353 35953 ft 449 kts 355°
2026-04-22 10:03 37.30686 8.88356 35953 ft 448 kts 355°
2026-04-22 10:04 37.36930 8.88365 35954 ft 449 kts 355°
2026-04-22 10:04 37.43169 8.88362 35955 ft 449 kts 355°
2026-04-22 10:05 37.49415 8.88354 35954 ft 449 kts 355°
2026-04-22 10:05 37.55659 8.88351 35953 ft 449 kts 355°
2026-04-22 10:06 37.61904 8.88359 35953 ft 449 kts 355°
2026-04-22 10:06 37.68200 8.88366 35954 ft 449 kts 355°
2026-04-22 10:07 37.74438 8.88368 35956 ft 449 kts 355°
2026-04-22 10:07 37.80686 8.88364 35957 ft 449 kts 355°
2026-04-22 10:08 37.86927 8.88358 35955 ft 449 kts 355°
2026-04-22 10:08 37.93171 8.88358 35952 ft 449 kts 355°
2026-04-22 10:09 37.98363 8.88361 35955 ft 449 kts 355°
2026-04-22 10:09 38.05660 8.88364 35957 ft 449 kts 355°
2026-04-22 10:10 38.11904 8.88371 35960 ft 448 kts 355°
2026-04-22 10:10 38.18174 8.88371 35957 ft 448 kts 355°
2026-04-22 10:11 38.24417 8.88359 35953 ft 448 kts 355°
2026-04-22 10:11 38.30691 8.88356 35952 ft 448 kts 355°
2026-04-22 10:12 38.36930 8.88361 35951 ft 448 kts 355°
2026-04-22 10:12 38.43166 8.88367 35951 ft 448 kts 355°
2026-04-22 10:13 38.49404 8.88363 35950 ft 448 kts 355°
2026-04-22 10:13 38.55644 8.88493 35948 ft 450 kts 358°
2026-04-22 10:14 38.61910 8.89152 35949 ft 452 kts
2026-04-22 10:14 38.68159 8.89983 35947 ft 452 kts
2026-04-22 10:15 38.74419 8.90723 35944 ft 451 kts 360°
2026-04-22 10:15 38.80672 8.91383 35943 ft 451 kts 359°
2026-04-22 10:16 38.85870 8.91922 35943 ft 451 kts 359°
2026-04-22 10:16 38.87984 8.92145 35942 ft 451 kts 359°
2026-04-22 10:17 38.99460 8.93383 35941 ft 450 kts 360°
2026-04-22 10:17 39.05710 8.94064 35941 ft 450 kts 360°
2026-04-22 10:18 39.11958 8.94742 35942 ft 450 kts 359°
2026-04-22 10:18 39.18193 8.95410 35941 ft 450 kts 359°
2026-04-22 10:19 39.24444 8.96099 35942 ft 450 kts 360°
2026-04-22 10:19 39.30688 8.96791 35941 ft 450 kts 359°
2026-04-22 10:20 39.36961 8.97338 35939 ft 445 kts 353°
2026-04-22 10:20 39.43120 8.96871 35938 ft 444 kts 351°
2026-04-22 10:21 39.49288 8.96387 35937 ft 444 kts 351°
2026-04-22 10:21 39.55454 8.95900 35938 ft 444 kts 351°
2026-04-22 10:22 39.61610 8.95415 35937 ft 444 kts 351°
2026-04-22 10:22 39.67787 8.94923 35936 ft 444 kts 351°
2026-04-22 10:23 39.72952 8.94505 35936 ft 444 kts 351°
2026-04-22 10:23 39.79117 8.94006 35938 ft 444 kts 351°
2026-04-22 10:24 39.85295 8.93559 35936 ft 444 kts 352°
2026-04-22 10:24 39.91516 8.93206 35936 ft 444 kts 353°
2026-04-22 10:25 39.97692 8.92857 35937 ft 444 kts 352°
2026-04-22 10:25 40.03859 8.92475 35939 ft 444 kts 352°
2026-04-22 10:26 40.10025 8.92087 35946 ft 443 kts 352°
2026-04-22 10:26 40.16190 8.91704 35951 ft 443 kts 352°
2026-04-22 10:27 40.22330 8.91316 35952 ft 443 kts 352°
2026-04-22 10:27 40.28487 8.90925 35952 ft 443 kts 352°
2026-04-22 10:28 40.34637 8.90540 35951 ft 443 kts 352°
2026-04-22 10:28 40.40800 8.90163 35953 ft 443 kts 352°
2026-04-22 10:29 40.46940 8.89776 35954 ft 442 kts 352°
2026-04-22 10:29 40.53133 8.89384 35951 ft 442 kts 352°
2026-04-22 10:30 40.59239 8.88998 35950 ft 441 kts 352°
2026-04-22 10:30 40.65415 8.88613 35951 ft 441 kts 352°
2026-04-22 10:31 40.71510 8.88232 35951 ft 441 kts 352°
2026-04-22 10:31 40.77680 8.87844 35952 ft 440 kts 352°
2026-04-22 10:32 40.83806 8.87451 35949 ft 440 kts 352°
2026-04-22 10:32 40.89918 8.87064 35949 ft 440 kts 352°
2026-04-22 10:33 40.96041 8.86672 35953 ft 440 kts 352°
2026-04-22 10:33 41.02194 8.86273 35956 ft 440 kts 352°
2026-04-22 10:34 41.08312 8.85876 35959 ft 439 kts 352°
2026-04-22 10:34 41.14422 8.85478 35959 ft 439 kts 352°
2026-04-22 10:35 41.20525 8.85095 35959 ft 439 kts 352°
2026-04-22 10:35 41.26538 8.84153 35958 ft 430 kts 339°
2026-04-22 10:36 41.32197 8.81720 35958 ft 427 kts 336°
2026-04-22 10:36 41.37842 8.79231 35960 ft 427 kts 336°
2026-04-22 10:37 41.46300 8.75456 35958 ft 427 kts 336°
2026-04-22 10:38 41.51971 8.72910 35960 ft 427 kts 336°
2026-04-22 10:38 41.57562 8.70398 35965 ft 427 kts 336°
2026-04-22 10:39 41.63228 8.67857 35972 ft 427 kts 336°
2026-04-22 10:39 41.68855 8.65328 35974 ft 427 kts 336°
2026-04-22 10:40 41.74485 8.62796 35977 ft 426 kts 336°
2026-04-22 10:40 41.80112 8.60260 35981 ft 426 kts 336°
2026-04-22 10:41 41.85698 8.57729 35983 ft 426 kts 336°
2026-04-22 10:41 41.91324 8.55182 35983 ft 426 kts 336°
2026-04-22 10:42 41.96981 8.52614 35984 ft 426 kts 336°
2026-04-22 10:42 42.02631 8.50038 35988 ft 426 kts 336°
2026-04-22 10:43 42.08245 8.47479 35989 ft 425 kts 336°
2026-04-22 10:43 42.13854 8.44919 35990 ft 425 kts 336°
2026-04-22 10:44 42.19459 8.42360 35983 ft 425 kts 336°
2026-04-22 10:44 42.25060 8.39795 35978 ft 425 kts 336°
2026-04-22 10:45 42.30669 8.37215 35977 ft 425 kts 336°
2026-04-22 10:45 42.35981 8.33897 35976 ft 419 kts 327°
2026-04-22 10:46 42.41081 8.30077 35972 ft 419 kts 327°
2026-04-22 10:46 42.46182 8.26251 35970 ft 419 kts 327°
2026-04-22 10:47 42.51280 8.22425 35970 ft 419 kts 327°
2026-04-22 10:47 42.56377 8.18592 35969 ft 419 kts 327°
2026-04-22 10:48 42.61477 8.14746 35969 ft 419 kts 327°
2026-04-22 10:48 42.66568 8.10898 35969 ft 419 kts 327°
2026-04-22 10:49 42.71655 8.07039 35968 ft 419 kts 327°
2026-04-22 10:49 42.76749 8.03181 35970 ft 419 kts 327°
2026-04-22 10:50 42.81833 7.99325 35971 ft 419 kts 326°
2026-04-22 10:50 42.86921 7.95451 35969 ft 418 kts 326°
2026-04-22 10:51 42.92005 7.91574 35968 ft 418 kts 326°
2026-04-22 10:51 42.96234 7.88346 35969 ft 419 kts 326°
2026-04-22 10:52 43.01318 7.84459 35969 ft 418 kts 326°
2026-04-22 10:52 43.06427 7.80534 35968 ft 418 kts 326°
2026-04-22 10:53 43.11495 7.76638 35967 ft 418 kts 326°
2026-04-22 10:53 43.16560 7.72731 35966 ft 418 kts 326°
2026-04-22 10:54 43.21616 7.68828 35965 ft 418 kts 326°
2026-04-22 10:54 43.26652 7.64924 35966 ft 418 kts 326°
2026-04-22 10:55 43.31740 7.60959 35967 ft 418 kts 326°
2026-04-22 10:55 43.36795 7.57021 35967 ft 418 kts 326°
2026-04-22 10:56 43.41810 7.53118 35967 ft 417 kts 326°
2026-04-22 10:56 43.46762 7.49259 35967 ft 417 kts 326°
2026-04-22 10:57 43.51813 7.45314 35963 ft 418 kts 326°
2026-04-22 10:57 43.56862 7.41350 35964 ft 417 kts 326°
2026-04-22 10:58 43.61091 7.38023 35962 ft 417 kts 326°
2026-04-22 10:58 43.66864 7.33105 35958 ft 416 kts 322°
2026-04-22 10:59 43.71643 7.28615 35959 ft 415 kts 322°
2026-04-22 10:59 43.76429 7.24122 35959 ft 416 kts 322°
2026-04-22 11:00 43.81236 7.19685 35963 ft 416 kts 323°
2026-04-22 11:00 43.86065 7.15265 35963 ft 415 kts 322°
2026-04-22 11:01 43.90872 7.10834 35962 ft 415 kts 322°
2026-04-22 11:01 43.95682 7.06392 35962 ft 415 kts 322°
2026-04-22 11:02 44.00485 7.01955 35962 ft 415 kts 322°
2026-04-22 11:02 44.05261 6.97519 35962 ft 414 kts 322°
2026-04-22 11:03 44.10081 6.93031 35962 ft 414 kts 322°
2026-04-22 11:03 44.14860 6.88561 35963 ft 414 kts 322°
2026-04-22 11:04 44.19648 6.84094 35963 ft 414 kts 322°
2026-04-22 11:04 44.24426 6.79627 35961 ft 413 kts 322°
2026-04-22 11:05 44.29201 6.75147 35967 ft 413 kts 322°
2026-04-22 11:05 44.33970 6.70663 35968 ft 413 kts 322°
2026-04-22 11:06 44.38768 6.66151 35969 ft 413 kts 322°
2026-04-22 11:06 44.43536 6.61655 35972 ft 413 kts 322°
2026-04-22 11:07 44.48369 6.57092 35970 ft 413 kts 322°
2026-04-22 11:07 44.53136 6.52571 35974 ft 414 kts 322°
2026-04-22 11:08 44.57902 6.48050 35970 ft 413 kts 322°
2026-04-22 11:08 44.62655 6.43536 35969 ft 413 kts 322°
2026-04-22 11:09 44.67442 6.38968 35972 ft 413 kts 322°
2026-04-22 11:09 44.72196 6.34429 35971 ft 413 kts 322°
2026-04-22 11:10 44.76946 6.29889 35974 ft 413 kts 322°
2026-04-22 11:10 44.81696 6.25335 35974 ft 413 kts 322°
2026-04-22 11:11 44.86426 6.20794 35975 ft 413 kts 322°
2026-04-22 11:11 44.91175 6.16228 35978 ft 413 kts 322°
2026-04-22 11:12 44.95952 6.11621 35983 ft 414 kts 322°
2026-04-22 11:12 44.99928 6.07790 35985 ft 414 kts 322°
2026-04-22 11:13 45.04677 6.03204 35987 ft 413 kts 322°
2026-04-22 11:13 45.09414 5.98607 35988 ft 412 kts 322°
2026-04-22 11:14 45.14178 5.93967 36001 ft 413 kts 322°
2026-04-22 11:14 45.18915 5.89357 36001 ft 413 kts 322°
2026-04-22 11:15 45.23662 5.84738 36007 ft 412 kts 322°
2026-04-22 11:15 45.28252 5.80238 36004 ft 412 kts 322°
2026-04-22 11:16 45.32879 5.75701 35998 ft 412 kts 322°
2026-04-22 11:16 45.37601 5.71073 36000 ft 412 kts 322°
2026-04-22 11:17 45.42321 5.66436 36001 ft 412 kts 322°
2026-04-22 11:17 45.47034 5.61791 36004 ft 412 kts 322°
2026-04-22 11:18 45.51749 5.57132 36008 ft 412 kts 322°
2026-04-22 11:18 45.56438 5.52495 36008 ft 412 kts 322°
2026-04-22 11:19 45.61295 5.48018 36004 ft 413 kts 324°
2026-04-22 11:19 45.66196 5.43743 36002 ft 414 kts 325°
2026-04-22 11:20 45.71111 5.39432 36007 ft 414 kts 324°
2026-04-22 11:20 45.75991 5.35065 36005 ft 413 kts 324°
2026-04-22 11:21 45.80839 5.30693 36010 ft 413 kts 324°
2026-04-22 11:21 45.85706 5.26287 36012 ft 413 kts 324°
2026-04-22 11:22 45.90569 5.21889 36015 ft 413 kts 324°
2026-04-22 11:22 45.95441 5.17486 36016 ft 414 kts 324°
2026-04-22 11:23 46.00306 5.13070 36018 ft 414 kts 324°
2026-04-22 11:23 46.05273 5.08755 36019 ft 417 kts 331°
2026-04-22 11:24 46.10595 5.05376 36024 ft 418 kts 332°
2026-04-22 11:24 46.15920 5.01992 36025 ft 418 kts 332°
2026-04-22 11:25 46.21241 4.98598 36028 ft 418 kts 332°
2026-04-22 11:25 46.26563 4.95193 36030 ft 418 kts 332°
2026-04-22 11:26 46.31888 4.91777 36034 ft 419 kts 332°
2026-04-22 11:26 46.37199 4.88369 36035 ft 419 kts 332°
2026-04-22 11:27 46.42529 4.84937 36049 ft 419 kts 332°
2026-04-22 11:27 46.47861 4.81493 36043 ft 419 kts 332°
2026-04-22 11:28 46.53194 4.78044 36053 ft 420 kts 332°
2026-04-22 11:28 46.58559 4.74564 36059 ft 419 kts 332°
2026-04-22 11:29 46.63856 4.71114 36061 ft 419 kts 332°
2026-04-22 11:29 46.69184 4.67639 36059 ft 419 kts 332°
2026-04-22 11:30 46.74510 4.64162 36066 ft 419 kts 332°
2026-04-22 11:30 46.79810 4.60683 36069 ft 410 kts 332°
2026-04-22 11:31 46.84892 4.57349 36065 ft 409 kts 332°
2026-04-22 11:31 46.90172 4.53877 36062 ft 408 kts 332°
2026-04-22 11:32 46.95350 4.50462 36064 ft 408 kts 332°
2026-04-22 11:32 47.00528 4.47037 36063 ft 408 kts 332°
2026-04-22 11:33 47.05699 4.43612 36067 ft 408 kts 332°
2026-04-22 11:33 47.10871 4.40181 36062 ft 408 kts 332°
2026-04-22 11:34 47.16044 4.36754 36063 ft 408 kts 332°
2026-04-22 11:34 47.21217 4.33324 36063 ft 408 kts 332°
2026-04-22 11:35 47.26388 4.29896 36061 ft 407 kts 332°
2026-04-22 11:35 47.31548 4.26468 36061 ft 407 kts 332°
2026-04-22 11:36 47.36707 4.23038 36060 ft 407 kts 332°
2026-04-22 11:36 47.41866 4.19599 36059 ft 407 kts 332°
2026-04-22 11:37 47.47019 4.16146 36058 ft 406 kts 332°
2026-04-22 11:37 47.52166 4.12686 36060 ft 406 kts 332°
2026-04-22 11:38 47.57312 4.09224 36064 ft 406 kts 332°
2026-04-22 11:38 47.65040 4.04018 36061 ft 406 kts 332°
2026-04-22 11:39 47.70216 4.00518 36066 ft 406 kts 332°
2026-04-22 11:39 47.75348 3.97041 36064 ft 406 kts 332°
2026-04-22 11:40 47.80741 3.94406 36055 ft 423 kts 352°
2026-04-22 11:40 47.82749 3.94522 36060 ft 433 kts
2026-04-22 11:40 47.85671 3.95920 36063 ft 450 kts 22°
2026-04-22 11:41 47.88201 3.98763 36061 ft 467 kts 42°
2026-04-22 11:41 47.90008 4.02856 36064 ft 484 kts 63°
2026-04-22 11:41 47.90823 4.07774 36065 ft 497 kts 84°
2026-04-22 11:41 47.90514 4.12922 36062 ft 504 kts 104°
2026-04-22 11:42 47.89104 4.17682 36061 ft 506 kts 125°
2026-04-22 11:42 47.86744 4.21523 36058 ft 502 kts 146°
2026-04-22 11:42 47.83794 4.24035 36069 ft 495 kts 162°
2026-04-22 11:42 47.80518 4.25195 36052 ft 476 kts 184°
2026-04-22 11:43 47.77289 4.24764 35629 ft 462 kts 201°
2026-04-22 11:43 47.74404 4.22860 34605 ft 447 kts 223°
2026-04-22 11:43 47.72249 4.19619 33635 ft 429 kts 244°
2026-04-22 11:43 47.71133 4.15614 32692 ft 413 kts 265°
2026-04-22 11:44 47.70742 4.11417 31824 ft 412 kts 265°
2026-04-22 11:44 47.70077 4.07134 30858 ft 416 kts 262°
2026-04-22 11:44 47.69332 4.02964 29865 ft 418 kts 262°
2026-04-22 11:44 47.68544 3.98740 28795 ft 420 kts 262°
2026-04-22 11:45 47.68068 3.94455 27507 ft 412 kts 275°
2026-04-22 11:45 47.68368 3.90304 25813 ft 401 kts 288°
2026-04-22 11:45 47.69455 3.86505 24010 ft 395 kts 302°
2026-04-22 11:45 47.71183 3.83363 22341 ft 394 kts 316°
2026-04-22 11:46 47.73362 3.80987 21502 ft 378 kts 323°
2026-04-22 11:46 47.75513 3.78798 21195 ft 377 kts 322°
2026-04-22 11:46 47.77656 3.76565 20553 ft 375 kts 322°
2026-04-22 11:46 47.79779 3.74333 19900 ft 373 kts 322°
2026-04-22 11:47 47.81892 3.72107 19267 ft 371 kts 322°
2026-04-22 11:47 47.83991 3.69905 18845 ft 364 kts 322°
2026-04-22 11:47 47.86028 3.67784 18703 ft 350 kts 322°
2026-04-22 11:47 47.87969 3.65771 18585 ft 337 kts 322°
2026-04-22 11:48 47.89861 3.63809 18349 ft 327 kts 322°
2026-04-22 11:48 47.91716 3.61881 18099 ft 323 kts 322°
2026-04-22 11:48 47.93554 3.59966 17849 ft 322 kts 322°
2026-04-22 11:48 47.95388 3.58051 17598 ft 321 kts 322°
2026-04-22 11:49 47.97131 3.55983 17351 ft 319 kts 314°
2026-04-22 11:49 47.98678 3.53633 17099 ft 318 kts 313°
2026-04-22 11:49 48.00227 3.51266 16846 ft 318 kts 313°
2026-04-22 11:49 48.01777 3.48902 16522 ft 319 kts 313°
2026-04-22 11:50 48.03326 3.46535 16064 ft 318 kts 313°
2026-04-22 11:50 48.04869 3.44172 15593 ft 318 kts 313°
2026-04-22 11:50 48.06398 3.41832 15115 ft 317 kts 314°
2026-04-22 11:50 48.07918 3.39506 14657 ft 317 kts 314°
2026-04-22 11:51 48.09479 3.37112 14177 ft 317 kts 314°
2026-04-22 11:51 48.11039 3.34720 13698 ft 316 kts 314°
2026-04-22 11:51 48.12574 3.32366 13232 ft 316 kts 314°
2026-04-22 11:51 48.14109 3.30014 12744 ft 315 kts 314°
2026-04-22 11:52 48.15632 3.27680 12468 ft 309 kts 314°
2026-04-22 11:52 48.17106 3.25411 12340 ft 298 kts 314°
2026-04-22 11:52 48.18526 3.23223 12198 ft 289 kts 314°
2026-04-22 11:52 48.19911 3.21091 11964 ft 284 kts 314°
2026-04-22 11:53 48.21282 3.18976 11716 ft 282 kts 314°
2026-04-22 11:53 48.22652 3.16869 11464 ft 282 kts 315°
2026-04-22 11:53 48.24021 3.14762 11292 ft 282 kts 315°
2026-04-22 11:53 48.25394 3.12647 11021 ft 283 kts 315°
2026-04-22 11:54 48.26764 3.10536 10729 ft 283 kts 315°
2026-04-22 11:54 48.28138 3.08418 10436 ft 283 kts 315°
2026-04-22 11:54 48.29415 3.06163 10136 ft 284 kts 305°
2026-04-22 11:54 48.30349 3.03545 9968 ft 286 kts 296°
2026-04-22 11:55 48.31174 3.00815 9820 ft 287 kts 296°
2026-04-22 11:55 48.32012 2.98058 9651 ft 288 kts 296°
2026-04-22 11:55 48.32836 2.95338 9490 ft 288 kts 296°
2026-04-22 11:55 48.33667 2.92596 9319 ft 289 kts 296°
2026-04-22 11:56 48.34501 2.89844 9148 ft 289 kts 296°
2026-04-22 11:56 48.35333 2.87100 8983 ft 289 kts 296°
2026-04-22 11:56 48.36176 2.84313 8812 ft 289 kts 296°
2026-04-22 11:56 48.37007 2.81557 8644 ft 289 kts 296°
2026-04-22 11:57 48.37836 2.78809 8487 ft 288 kts 296°
2026-04-22 11:57 48.38664 2.76068 8318 ft 287 kts 296°
2026-04-22 11:57 48.39486 2.73334 8158 ft 287 kts 296°
2026-04-22 11:57 48.40306 2.70600 7991 ft 286 kts 296°
2026-04-22 11:58 48.41125 2.67869 7817 ft 286 kts 296°
2026-04-22 11:58 48.41944 2.65143 7656 ft 285 kts 296°
2026-04-22 11:58 48.42761 2.62429 7493 ft 285 kts 296°
2026-04-22 11:58 48.43548 2.59804 7332 ft 284 kts 296°
2026-04-22 11:59 48.44384 2.57004 7155 ft 283 kts 296°
2026-04-22 11:59 48.45192 2.54299 6994 ft 283 kts 296°
2026-04-22 11:59 48.46009 2.51557 6821 ft 283 kts 296°
2026-04-22 11:59 48.46804 2.48894 6511 ft 281 kts 296°
2026-04-22 12:00 48.47611 2.46179 6328 ft 281 kts 296°
2026-04-22 12:00 48.48410 2.43490 6159 ft 280 kts 296°
2026-04-22 12:00 48.49202 2.40820 5994 ft 280 kts 297°
2026-04-22 12:00 48.49998 2.38137 5837 ft 280 kts 296°
2026-04-22 12:01 48.50790 2.35467 5670 ft 279 kts 297°
2026-04-22 12:01 48.51581 2.32798 5512 ft 278 kts 297°
2026-04-22 12:01 48.52103 2.31036 5402 ft 278 kts 297°
2026-04-22 12:01 48.52900 2.28337 5242 ft 278 kts 297°
2026-04-22 12:02 48.53945 2.24793 5029 ft 277 kts 297°
2026-04-22 12:02 48.54475 2.22993 4916 ft 276 kts 297°
2026-04-22 12:02 48.55245 2.20368 4762 ft 276 kts 297°
2026-04-22 12:02 48.56022 2.17717 4615 ft 266 kts 297°
2026-04-22 12:03 48.56751 2.15217 4508 ft 254 kts 297°
2026-04-22 12:03 48.57445 2.12831 4394 ft 242 kts 297°
2026-04-22 12:03 48.58111 2.10550 4298 ft 233 kts 297°
2026-04-22 12:03 48.58761 2.08345 4191 ft 225 kts 299°
2026-04-22 12:04 48.59637 2.06564 4109 ft 201 kts 328°
2026-04-22 12:04 48.60821 2.05800 4079 ft 174 kts 358°
2026-04-22 12:04 48.61940 2.05904 4025 ft 152 kts 21°
2026-04-22 12:04 48.62823 2.06586 3935 ft 137 kts 42°
2026-04-22 12:05 48.63433 2.07655 3806 ft 133 kts 62°
2026-04-22 12:05 48.63878 2.08899 3652 ft 133 kts 62°
2026-04-22 12:05 48.64318 2.10129 3483 ft 133 kts 61°
2026-04-22 12:05 48.64654 2.11065 3360 ft 132 kts 62°
2026-04-22 12:06 48.65088 2.12278 3185 ft 131 kts 62°
2026-04-22 12:06 48.65522 2.13494 3021 ft 132 kts 61°
2026-04-22 12:06 48.65958 2.14716 2834 ft 131 kts 62°
2026-04-22 12:06 48.66397 2.15946 2662 ft 131 kts 62°
2026-04-22 12:07 48.66828 2.17154 2511 ft 130 kts 61°
2026-04-22 12:07 48.67257 2.18356 2323 ft 130 kts 61°
2026-04-22 12:07 48.67694 2.19583 2149 ft 132 kts 61°
2026-04-22 12:07 48.68131 2.20811 1966 ft 133 kts 62°
2026-04-22 12:08 48.68568 2.22040 1783 ft 130 kts 62°
2026-04-22 12:08 48.68996 2.23242 1614 ft 129 kts 63°
2026-04-22 12:08 48.69426 2.24450 1441 ft 129 kts 63°
2026-04-22 12:08 48.69849 2.25640 1262 ft 127 kts 63°
2026-04-22 12:09 48.70273 2.26835 1095 ft 127 kts 63°
2026-04-22 12:09 48.70694 2.28020 926 ft 128 kts 62°
2026-04-22 12:09 48.71117 2.29212 754 ft 129 kts 62°
2026-04-22 12:09 48.71543 2.30411 587 ft 130 kts 62°
2026-04-22 12:10 48.71992 2.31687 398 ft 130 kts 62°
2026-04-22 12:10 48.72430 2.32903 295 ft 120 kts 62°
2026-04-22 12:10 48.72776 2.33898 294 ft 76 kts 62°
2026-04-22 12:10 48.72966 2.34446 292 ft 32 kts 62°
2026-04-22 12:11 48.72998 2.34609 290 ft 14 kts 83°
2026-04-22 12:11 48.73007 2.34708 296 ft 8 kts 82°
2026-04-22 12:11 48.73015 2.34793 293 ft 8 kts 82°
2026-04-22 12:11 48.73019 2.34838 290 ft 0 kts 82°
2026-04-22 12:14 48.73021 2.34855 290 ft 0 kts 82°
2026-04-22 12:14 48.73022 2.34872 293 ft 3 kts 82°
2026-04-22 12:14 48.73026 2.34908 293 ft 0 kts 82°
2026-04-22 12:15 48.73026 2.34916 291 ft 2 kts 82°
2026-04-22 12:15 48.73029 2.34952 291 ft 5 kts 83°
2026-04-22 12:15 48.73030 2.34962 291 ft 1 kts 83°
2026-04-22 12:15 48.73032 2.34983 294 ft 3 kts 83°
2026-04-22 12:16 48.73035 2.35035 291 ft 7 kts 84°
2026-04-22 12:16 48.73039 2.35129 291 ft 10 kts 92°
2026-04-22 12:16 48.73037 2.35153 294 ft 1 kts 102°
2026-04-22 12:16 48.73032 2.35174 295 ft 4 kts 109°
2026-04-22 12:17 48.73015 2.35225 291 ft 7 kts 123°
2026-04-22 12:17 48.72969 2.35288 293 ft 5 kts 150°
2026-04-22 12:17 48.72929 2.35317 291 ft 8 kts 152°
2026-04-22 12:17 48.72918 2.35330 293 ft 1 kts 139°
2026-04-22 12:18 48.72908 2.35354 294 ft 8 kts 117°
2026-04-22 12:18 48.72914 2.35483 295 ft 12 kts 66°
2026-04-22 12:18 48.72933 2.35511 291 ft 0 kts 31°
2026-04-22 12:18 48.72936 2.35525 294 ft 2 kts 71°
2026-04-22 12:19 48.72936 2.35541 295 ft 1 kts 88°
2026-04-22 12:19 48.72934 2.35552 294 ft 5 kts 105°
2026-04-22 12:19 48.72902 2.35649 294 ft 8 kts 118°
2026-04-22 12:19 48.72897 2.35663 292 ft 0 kts 118°